Starlink 3576

operational
NORAD ID: 51883 Int'l Des: 2022-022 Owner: SPXS Country: US Constellation: starlink
LEOCIRCULAR

关于 Starlink 3576

正在加载描述...

实时位置

正在加载3D地球...

即将过境

高度历史

Altitude vs Time

uPlot chart will show altitude changes over time

两行轨道根数

1 51883U 22022AH 25351.38198283 -.00000189 00000-0 62080-5 0 9991
2 51883 53.2187 8.7971 0001381 87.1107 273.0043 15.08841329210814
Epoch: Dec 17, 2025 • Age: 13 hours

当前状态

高度 540.8 km
速度 7.60 km/s
星下点 29.90°N, 96.53°E
发射日期 Mar 3, 2022
运行时间 3.7 years
类型 internet

技术详情

分类 Payload
质量 297.00 kg
干质量 275.00 kg
总质量 297.00 kg
长度 0.20 m
直径 2.80 m
跨度 9.00 m
形状 Box + pan
制造商 SPXS
平台类型 Starlink
阶段状态 In Orbit
所有者/国家 SPXS/US

大型星座

Loading constellations...